Time,TemperatureF,DewpointF,PressureIn,WindDirection,WindDirectionDegrees,WindSpeedMPH,WindSpeedGustMPH,Humidity,HourlyPrecipIn,Conditions,Clouds,dailyrainin,SoftwareType,DateUTC
2013-06-22 00:01:00,62.0,57.4,30.12,NE,49,0.0,0.0,85,0.00,SCT,,0.00,WeatherDisplay:10.37,2013-06-22 04:01:00,
2013-06-22 00:06:00,62.0,57.4,30.12,NE,49,0.0,0.0,85,0.00,SCT,,0.00,WeatherDisplay:10.37,2013-06-22 04:06:00,
2013-06-22 00:11:00,61.9,57.3,30.12,NE,49,0.0,0.0,85,0.00,SCT,,0.00,WeatherDisplay:10.37,2013-06-22 04:11:00,
2013-06-22 00:16:00,61.8,57.2,30.12,NE,49,0.0,0.0,85,0.00,SCT,,0.00,WeatherDisplay:10.37,2013-06-22 04:16:00,
2013-06-22 00:21:00,61.8,57.2,30.12,NE,49,0.0,0.0,85,0.00,SCT,,0.00,WeatherDisplay:10.37,2013-06-22 04:21:00,
2013-06-22 00:26:00,61.9,57.3,30.12,NE,49,0.0,0.0,85,0.00,SCT,,0.00,WeatherDisplay:10.37,2013-06-22 04:26:00,
2013-06-22 00:31:00,62.0,57.1,30.12,NE,49,0.0,0.0,84,0.00,SCT,,0.00,WeatherDisplay:10.37,2013-06-22 04:31:00,
2013-06-22 00:36:00,62.2,57.3,30.12,NE,49,0.0,0.0,84,0.00,SCT,,0.00,WeatherDisplay:10.37,2013-06-22 04:36:00,
2013-06-22 00:41:00,62.4,57.2,30.11,NE,49,0.0,0.0,83,0.00,SCT,,0.00,WeatherDisplay:10.37,2013-06-22 04:41:00,
2013-06-22 00:46:00,62.5,57.6,30.11,NE,48,0.0,0.0,84,0.00,SCT,,0.00,WeatherDisplay:10.37,2013-06-22 04:46:00,
2013-06-22 00:51:00,62.4,57.5,30.12,NE,48,0.0,0.0,84,0.00,SCT,,0.00,WeatherDisplay:10.37,2013-06-22 04:51:00,
2013-06-22 00:56:00,62.4,57.8,30.12,NE,49,0.0,0.0,85,0.00,SCT,,0.00,WeatherDisplay:10.37,2013-06-22 04:56:00,
2013-06-22 01:01:00,62.3,57.7,30.12,NE,49,0.0,0.0,85,0.00,SCT,,0.00,WeatherDisplay:10.37,2013-06-22 05:01:00,
2013-06-22 01:06:00,62.4,57.8,30.12,NE,49,0.0,0.0,85,0.00,SCT,,0.00,WeatherDisplay:10.37,2013-06-22 05:06:00,
2013-06-22 01:11:00,62.6,58.0,30.12,NE,49,0.0,0.0,85,0.00,SCT,,0.00,WeatherDisplay:10.37,2013-06-22 05:11:00,
2013-06-22 01:17:00,62.6,58.0,30.11,NE,49,0.0,0.0,85,0.00,SCT,,0.00,WeatherDisplay:10.37,2013-06-22 05:17:00,
2013-06-22 01:22:00,62.6,58.0,30.12,NE,48,0.0,0.0,85,0.00,SCT,,0.00,WeatherDisplay:10.37,2013-06-22 05:22:00,
2013-06-22 01:27:00,62.6,58.0,30.12,NE,48,0.0,0.0,85,0.00,SCT,,0.00,WeatherDisplay:10.37,2013-06-22 05:27:00,
2013-06-22 01:32:00,62.6,58.0,30.11,NE,49,0.0,0.0,85,0.00,SCT,,0.00,WeatherDisplay:10.37,2013-06-22 05:32:00,
2013-06-22 01:37:00,62.6,58.4,30.12,NE,48,0.0,0.0,86,0.00,SCT,,0.00,WeatherDisplay:10.37,2013-06-22 05:37:00,
2013-06-22 01:42:00,62.7,58.5,30.11,NE,49,0.0,0.0,86,0.00,SCT,,0.00,WeatherDisplay:10.37,2013-06-22 05:42:00,
2013-06-22 01:47:00,62.8,58.5,30.11,NE,49,0.0,0.0,86,0.00,SCT,,0.00,WeatherDisplay:10.37,2013-06-22 05:47:00,
2013-06-22 01:52:00,62.9,58.6,30.11,NE,48,0.0,0.0,86,0.00,SCT,,0.00,WeatherDisplay:10.37,2013-06-22 05:52:00,
2013-06-22 01:57:00,63.0,58.7,30.11,NE,49,0.0,0.0,86,0.00,SCT,,0.00,WeatherDisplay:10.37,2013-06-22 05:57:00,
2013-06-22 02:02:00,62.9,58.6,30.11,NE,49,0.0,0.0,86,0.00,SCT,,0.00,WeatherDisplay:10.37,2013-06-22 06:02:00,
2013-06-22 02:07:00,63.0,59.1,30.11,NE,48,0.0,0.0,87,0.00,SCT,,0.00,WeatherDisplay:10.37,2013-06-22 06:07:00,
2013-06-22 02:12:00,63.0,59.1,30.11,NE,49,0.0,0.0,87,0.00,SCT,,0.00,WeatherDisplay:10.37,2013-06-22 06:12:00,
2013-06-22 02:17:00,63.0,59.1,30.11,ESE,111,0.0,0.0,87,0.00,SCT,,0.00,WeatherDisplay:10.37,2013-06-22 06:17:00,
2013-06-22 02:22:00,63.0,59.1,30.10,ESE,118,0.2,1.2,87,0.00,SCT,,0.00,WeatherDisplay:10.37,2013-06-22 06:22:00,
2013-06-22 02:27:00,63.0,59.1,30.10,ESE,119,0.0,0.0,87,0.00,SCT,,0.00,WeatherDisplay:10.37,2013-06-22 06:27:00,
2013-06-22 02:32:00,63.1,59.2,30.09,ESE,118,0.0,0.0,87,0.00,SCT,,0.00,WeatherDisplay:10.37,2013-06-22 06:32:00,
2013-06-22 02:37:00,63.1,59.2,30.09,South,176,0.0,0.0,87,0.00,SCT,,0.00,WeatherDisplay:10.37,2013-06-22 06:37:00,
2013-06-22 02:42:00,63.2,58.9,30.09,South,176,0.0,0.0,86,0.00,SCT,,0.00,WeatherDisplay:10.37,2013-06-22 06:42:00,
2013-06-22 02:47:00,63.2,58.9,30.09,South,176,0.0,0.0,86,0.00,SCT,,0.00,WeatherDisplay:10.37,2013-06-22 06:47:00,
2013-06-22 02:52:00,63.1,58.8,30.09,South,176,0.0,0.0,86,0.00,SCT,,0.00,WeatherDisplay:10.37,2013-06-22 06:52:00,
2013-06-22 02:57:00,63.0,58.7,30.08,South,176,0.0,0.0,86,0.00,SCT,,0.00,WeatherDisplay:10.37,2013-06-22 06:57:00,
2013-06-22 03:02:00,62.9,58.6,30.08,South,176,0.0,0.0,86,0.00,SCT,,0.00,WeatherDisplay:10.37,2013-06-22 07:02:00,
2013-06-22 03:07:00,62.8,58.9,30.08,South,176,0.0,0.0,87,0.00,SCT,,0.00,WeatherDisplay:10.37,2013-06-22 07:07:00,
2013-06-22 03:13:00,62.6,58.4,30.08,South,176,0.0,0.0,86,0.00,SCT,,0.00,WeatherDisplay:10.37,2013-06-22 07:13:00,
2013-06-22 03:18:00,62.5,58.6,30.08,South,176,0.0,0.0,87,0.00,SCT,,0.00,WeatherDisplay:10.37,2013-06-22 07:18:00,
2013-06-22 03:23:00,62.4,58.5,30.08,South,176,0.0,0.0,87,0.00,SCT,,0.00,WeatherDisplay:10.37,2013-06-22 07:23:00,
2013-06-22 03:28:00,62.3,58.4,30.08,South,176,0.0,0.0,87,0.00,SCT,,0.00,WeatherDisplay:10.37,2013-06-22 07:28:00,
2013-06-22 03:33:00,62.2,58.6,30.08,South,176,0.0,0.0,88,0.00,SCT,,0.00,WeatherDisplay:10.37,2013-06-22 07:33:00,
2013-06-22 03:38:00,62.0,58.1,30.07,South,176,0.0,0.0,87,0.00,SCT,,0.00,WeatherDisplay:10.37,2013-06-22 07:38:00,
2013-06-22 03:43:00,62.0,58.1,30.07,South,176,0.0,0.0,87,0.00,SCT,,0.00,WeatherDisplay:10.37,2013-06-22 07:43:00,
2013-06-22 03:48:00,62.0,58.1,30.07,South,176,0.0,0.0,87,0.00,SCT,,0.00,WeatherDisplay:10.37,2013-06-22 07:48:00,
2013-06-22 03:53:00,62.1,58.2,30.07,South,176,0.0,0.0,87,0.00,SCT,,0.00,WeatherDisplay:10.37,2013-06-22 07:53:00,
2013-06-22 03:58:00,62.1,57.9,30.07,South,176,0.0,0.0,86,0.00,SCT,,0.00,WeatherDisplay:10.37,2013-06-22 07:58:00,
2013-06-22 04:03:00,62.4,58.2,30.07,SE,140,0.0,0.0,86,0.00,SCT,,0.00,WeatherDisplay:10.37,2013-06-22 08:03:00,
2013-06-22 04:08:00,62.4,58.2,30.07,SE,139,0.0,0.0,86,0.00,SCT,,0.00,WeatherDisplay:10.37,2013-06-22 08:08:00,
2013-06-22 04:13:00,62.3,58.1,30.07,SE,139,0.0,0.0,86,0.00,SCT,,0.00,WeatherDisplay:10.37,2013-06-22 08:13:00,
2013-06-22 04:18:00,62.2,58.0,30.07,SE,139,0.0,0.0,86,0.00,SCT,,0.00,WeatherDisplay:10.37,2013-06-22 08:18:00,
2013-06-22 04:23:00,62.2,58.0,30.07,SE,139,0.0,1.2,86,0.00,SCT,,0.00,WeatherDisplay:10.37,2013-06-22 08:23:00,
2013-06-22 04:28:00,62.2,58.0,30.07,SE,139,0.0,0.0,86,0.00,SCT,,0.00,WeatherDisplay:10.37,2013-06-22 08:28:00,
2013-06-22 04:33:00,62.1,57.9,30.07,SE,139,0.0,0.0,86,0.00,SCT,,0.00,WeatherDisplay:10.37,2013-06-22 08:33:00,
2013-06-22 04:38:00,62.0,57.8,30.07,SE,139,0.0,0.0,86,0.00,SCT,,0.00,WeatherDisplay:10.37,2013-06-22 08:38:00,
2013-06-22 04:43:00,62.0,57.8,30.07,SE,141,0.1,1.2,86,0.00,SCT,,0.00,WeatherDisplay:10.37,2013-06-22 08:43:00,
2013-06-22 04:48:00,62.3,58.1,30.07,SE,141,0.0,0.0,86,0.00,SCT,,0.00,WeatherDisplay:10.37,2013-06-22 08:48:00,
2013-06-22 04:53:00,62.3,58.1,30.07,SE,141,0.0,0.0,86,0.00,SCT,,0.00,WeatherDisplay:10.37,2013-06-22 08:53:00,
2013-06-22 04:58:00,62.4,57.8,30.06,SE,141,0.0,0.0,85,0.00,SCT,,0.00,WeatherDisplay:10.37,2013-06-22 08:58:00,
2013-06-22 05:03:00,62.5,57.9,30.06,South,181,0.0,0.0,85,0.00,SCT,,0.00,WeatherDisplay:10.37,2013-06-22 09:03:00,
2013-06-22 05:08:00,62.8,57.9,30.06,SE,144,1.1,2.3,84,0.00,SCT,,0.00,WeatherDisplay:10.37,2013-06-22 09:08:00,
2013-06-22 05:13:00,63.2,57.6,30.06,South,186,1.7,2.3,82,0.00,SCT,,0.00,WeatherDisplay:10.37,2013-06-22 09:13:00,
2013-06-22 05:18:00,63.5,57.6,30.06,South,176,1.3,2.3,81,0.00,SCT,,0.00,WeatherDisplay:10.37,2013-06-22 09:18:00,
2013-06-22 05:23:00,63.7,57.4,30.06,South,173,1.0,2.3,80,0.00,SCT,,0.00,WeatherDisplay:10.37,2013-06-22 09:23:00,
2013-06-22 05:28:00,63.8,57.5,30.06,South,188,1.5,2.3,80,0.00,SCT,,0.00,WeatherDisplay:10.37,2013-06-22 09:28:00,
2013-06-22 05:33:00,64.0,57.4,30.06,SSE,150,1.0,2.3,79,0.00,SCT,,0.00,WeatherDisplay:10.37,2013-06-22 09:33:00,
2013-06-22 05:38:00,64.0,57.4,30.06,South,190,0.6,1.2,79,0.00,SCT,,0.00,WeatherDisplay:10.37,2013-06-22 09:38:00,
2013-06-22 05:43:00,64.0,57.4,30.06,South,188,0.5,1.2,79,0.00,SCT,,0.00,WeatherDisplay:10.37,2013-06-22 09:43:00,
2013-06-22 05:49:00,64.0,57.4,30.06,SSW,192,1.0,1.2,79,0.00,SCT,,0.00,WeatherDisplay:10.37,2013-06-22 09:49:00,
2013-06-22 05:54:00,64.2,57.2,30.06,SSE,158,0.5,2.0,78,0.00,SCT,,0.00,WeatherDisplay:10.37,2013-06-22 09:54:00,
2013-06-22 05:59:00,64.3,57.3,30.06,South,180,0.6,2.3,78,0.00,SCT,,0.00,WeatherDisplay:10.37,2013-06-22 09:59:00,
2013-06-22 06:04:00,64.5,57.1,30.05,South,172,1.4,2.3,77,0.00,SCT,,0.00,WeatherDisplay:10.37,2013-06-22 10:04:00,
2013-06-22 06:09:00,64.8,57.4,30.06,SSE,152,1.5,2.3,77,0.00,SCT,,0.00,WeatherDisplay:10.37,2013-06-22 10:09:00,
2013-06-22 06:14:00,65.0,57.2,30.05,SSE,155,1.5,3.5,76,0.00,SCT,,0.00,WeatherDisplay:10.37,2013-06-22 10:14:00,
2013-06-22 06:19:00,65.2,57.4,30.06,SSE,149,1.4,3.5,76,0.00,SCT,,0.00,WeatherDisplay:10.37,2013-06-22 10:19:00,
2013-06-22 06:24:00,65.6,57.5,30.06,SSE,151,1.9,3.5,75,0.00,SCT,,0.00,WeatherDisplay:10.37,2013-06-22 10:24:00,
2013-06-22 06:29:00,65.9,57.7,30.05,South,190,1.7,4.0,75,0.00,SCT,,0.00,WeatherDisplay:10.37,2013-06-22 10:29:00,
2013-06-22 06:34:00,66.1,57.9,30.05,SSW,194,1.6,3.5,75,0.00,SCT,,0.00,WeatherDisplay:10.37,2013-06-22 10:34:00,
2013-06-22 06:39:00,66.2,58.0,30.05,SE,141,2.2,3.5,75,0.00,SCT,,0.00,WeatherDisplay:10.37,2013-06-22 10:39:00,
2013-06-22 06:44:00,66.6,58.4,30.06,SSW,213,2.6,4.6,75,0.00,SCT,,0.00,WeatherDisplay:10.37,2013-06-22 10:44:00,
2013-06-22 06:49:00,66.9,58.7,30.05,SSW,201,2.4,3.5,75,0.00,SCT,,0.00,WeatherDisplay:10.37,2013-06-22 10:49:00,
2013-06-22 06:54:00,67.3,58.7,30.05,SSE,163,3.0,5.8,74,0.00,SCT,,0.00,WeatherDisplay:10.37,2013-06-22 10:54:00,
2013-06-22 06:59:00,67.5,59.3,30.05,SW,222,3.4,3.5,75,0.00,SCT,,0.00,WeatherDisplay:10.37,2013-06-22 10:59:00,
2013-06-22 07:04:00,67.7,59.1,30.05,SE,130,2.9,6.0,74,0.00,BKN,,0.00,WeatherDisplay:10.37,2013-06-22 11:04:00,
2013-06-22 07:09:00,68.0,59.4,30.06,SSE,160,2.4,8.1,74,0.00,BKN,,0.00,WeatherDisplay:10.37,2013-06-22 11:09:00,
2013-06-22 07:14:00,68.3,60.1,30.06,SSW,211,2.1,3.5,75,0.00,BKN,,0.00,WeatherDisplay:10.37,2013-06-22 11:14:00,
2013-06-22 07:19:00,68.5,60.3,30.06,SSW,198,2.2,3.5,75,0.00,BKN,,0.00,WeatherDisplay:10.37,2013-06-22 11:19:00,
2013-06-22 07:24:00,68.7,60.5,30.06,SW,230,2.9,5.8,75,0.00,BKN,,0.00,WeatherDisplay:10.37,2013-06-22 11:24:00,
2013-06-22 07:29:00,69.0,60.7,30.06,SSW,197,4.6,6.9,75,0.00,BKN,,0.00,WeatherDisplay:10.37,2013-06-22 11:29:00,
2013-06-22 07:34:00,69.3,61.0,30.06,SSW,194,5.1,9.2,75,0.00,BKN,,0.00,WeatherDisplay:10.37,2013-06-22 11:34:00,
2013-06-22 07:39:00,69.6,61.3,30.06,SSW,210,4.7,9.2,75,0.00,BKN,,0.00,WeatherDisplay:10.37,2013-06-22 11:39:00,
2013-06-22 07:44:00,69.8,61.5,30.06,South,191,3.8,7.0,75,0.00,BKN,,0.00,WeatherDisplay:10.37,2013-06-22 11:44:00,
2013-06-22 07:49:00,70.1,61.8,30.06,SW,215,2.2,4.6,75,0.00,BKN,,0.00,WeatherDisplay:10.37,2013-06-22 11:49:00,
2013-06-22 07:54:00,70.5,62.2,30.06,SSW,194,3.5,6.9,75,0.00,BKN,,0.00,WeatherDisplay:10.37,2013-06-22 11:54:00,
2013-06-22 07:59:00,70.8,62.5,30.06,SW,227,4.6,8.1,75,0.00,BKN,,0.00,WeatherDisplay:10.37,2013-06-22 11:59:00,
2013-06-22 08:04:00,71.2,62.9,30.06,SW,221,2.7,4.6,75,0.00,BKN,,0.00,WeatherDisplay:10.37,2013-06-22 12:04:00,
2013-06-22 08:09:00,71.6,62.9,30.07,South,188,3.7,5.8,74,0.00,BKN,,0.00,WeatherDisplay:10.37,2013-06-22 12:09:00,
2013-06-22 08:14:00,72.0,63.3,30.07,SE,144,3.6,8.1,74,0.00,BKN,,0.00,WeatherDisplay:10.37,2013-06-22 12:14:00,
2013-06-22 08:19:00,72.4,63.6,30.07,SW,214,4.1,4.6,74,0.00,BKN,,0.00,WeatherDisplay:10.37,2013-06-22 12:19:00,
2013-06-22 08:24:00,72.9,63.3,30.07,SSW,211,4.3,8.1,72,0.00,BKN,,0.00,WeatherDisplay:10.37,2013-06-22 12:24:00,
2013-06-22 08:29:00,73.5,63.9,30.07,SSW,202,3.1,3.5,72,0.00,BKN,,0.00,WeatherDisplay:10.37,2013-06-22 12:29:00,
2013-06-22 08:34:00,73.9,63.9,30.07,SW,221,2.8,4.6,71,0.00,BKN,,0.00,WeatherDisplay:10.37,2013-06-22 12:34:00,
2013-06-22 08:39:00,74.2,63.8,30.07,South,188,5.0,8.1,70,0.00,BKN,,0.00,WeatherDisplay:10.37,2013-06-22 12:39:00,
2013-06-22 08:44:00,74.5,63.7,30.07,South,190,4.7,5.0,69,0.00,BKN,,0.00,WeatherDisplay:10.37,2013-06-22 12:44:00,
2013-06-22 08:49:00,74.8,64.4,30.07,SSE,148,3.2,3.5,70,0.00,BKN,,0.00,WeatherDisplay:10.37,2013-06-22 12:49:00,
2013-06-22 08:54:00,75.0,64.5,30.07,SSW,201,2.6,3.5,70,0.00,BKN,,0.00,WeatherDisplay:10.37,2013-06-22 12:54:00,
2013-06-22 08:59:00,75.1,64.2,30.08,SSW,211,3.7,5.8,69,0.00,BKN,,0.00,WeatherDisplay:10.37,2013-06-22 12:59:00,
2013-06-22 09:04:00,75.3,64.8,30.08,SSW,197,2.2,3.5,70,0.00,BKN,,0.00,WeatherDisplay:10.37,2013-06-22 13:04:00,
2013-06-22 09:09:00,75.4,64.9,30.07,South,179,3.7,4.6,70,0.00,BKN,,0.00,WeatherDisplay:10.37,2013-06-22 13:09:00,
2013-06-22 09:14:00,75.7,64.8,30.07,SE,136,2.7,3.5,69,0.00,BKN,,0.00,WeatherDisplay:10.37,2013-06-22 13:14:00,
2013-06-22 09:19:00,75.6,64.7,30.07,SW,218,2.4,3.5,69,0.00,BKN,,0.00,WeatherDisplay:10.37,2013-06-22 13:19:00,
2013-06-22 09:24:00,75.5,64.6,30.07,South,190,3.6,4.6,69,0.00,BKN,,0.00,WeatherDisplay:10.37,2013-06-22 13:24:00,
2013-06-22 09:29:00,75.9,65.4,30.07,SSW,208,3.7,4.0,70,0.00,BKN,,0.00,WeatherDisplay:10.37,2013-06-22 13:29:00,
2013-06-22 09:34:00,76.4,65.5,30.07,South,176,3.3,4.6,69,0.00,BKN,,0.00,WeatherDisplay:10.37,2013-06-22 13:34:00,
2013-06-22 09:39:00,76.9,65.5,30.07,SSE,151,4.4,10.4,68,0.00,BKN,,0.00,WeatherDisplay:10.37,2013-06-22 13:39:00,
2013-06-22 09:44:00,77.3,65.9,30.07,South,190,2.4,8.1,68,0.00,BKN,,0.00,WeatherDisplay:10.37,2013-06-22 13:44:00,
2013-06-22 09:49:00,77.8,66.0,30.07,South,189,4.2,9.2,67,0.00,BKN,,0.00,WeatherDisplay:10.37,2013-06-22 13:49:00,
2013-06-22 09:54:00,78.4,66.5,30.07,SSE,153,4.6,6.9,67,0.00,BKN,,0.00,WeatherDisplay:10.37,2013-06-22 13:54:00,
2013-06-22 09:59:00,79.1,66.3,30.07,SW,217,4.1,8.1,65,0.00,BKN,,0.00,WeatherDisplay:10.37,2013-06-22 13:59:00,
2013-06-22 10:04:00,79.4,66.6,30.07,SW,225,3.7,5.8,65,0.00,BKN,,0.00,WeatherDisplay:10.37,2013-06-22 14:04:00,
2013-06-22 10:09:00,79.6,65.9,30.07,SSW,193,4.1,5.8,63,0.00,BKN,,0.00,WeatherDisplay:10.37,2013-06-22 14:09:00,
2013-06-22 10:14:00,80.0,66.3,30.06,South,174,3.0,8.1,63,0.00,BKN,,0.00,WeatherDisplay:10.37,2013-06-22 14:14:00,
2013-06-22 10:19:00,80.2,66.0,30.06,SE,146,4.7,11.5,62,0.00,BKN,,0.00,WeatherDisplay:10.37,2013-06-22 14:19:00,
2013-06-22 10:24:00,80.2,66.0,30.06,South,178,3.0,6.0,62,0.00,BKN,,0.00,WeatherDisplay:10.37,2013-06-22 14:24:00,
2013-06-22 10:29:00,80.1,65.4,30.06,South,190,5.0,5.0,61,0.00,BKN,,0.00,WeatherDisplay:10.37,2013-06-22 14:29:00,
2013-06-22 10:34:00,79.9,64.7,30.05,SSW,192,7.0,12.0,60,0.00,BKN,,0.00,WeatherDisplay:10.37,2013-06-22 14:34:00,
2013-06-22 10:39:00,80.3,65.2,30.05,SSW,201,6.0,10.0,60,0.00,BKN,,0.00,WeatherDisplay:10.37,2013-06-22 14:39:00,
2013-06-22 10:44:00,80.8,64.6,30.05,South,190,6.0,14.0,58,0.00,BKN,,0.00,WeatherDisplay:10.37,2013-06-22 14:44:00,
2013-06-22 10:49:00,81.3,65.6,30.05,SSW,211,2.9,10.4,59,0.00,BKN,,0.00,WeatherDisplay:10.37,2013-06-22 14:49:00,
2013-06-22 10:54:00,81.6,65.4,30.05,SSW,205,6.0,12.0,58,0.00,BKN,,0.00,WeatherDisplay:10.37,2013-06-22 14:54:00,
2013-06-22 10:59:00,81.8,65.6,30.05,SW,215,4.4,7.0,58,0.00,BKN,,0.00,WeatherDisplay:10.37,2013-06-22 14:59:00,
2013-06-22 11:04:00,82.1,65.8,30.05,SSW,207,5.0,10.0,58,0.00,BKN,,0.00,WeatherDisplay:10.37,2013-06-22 15:04:00,
2013-06-22 11:09:00,82.5,65.2,30.06,WSW,240,7.9,15.0,56,0.00,BKN,,0.00,WeatherDisplay:10.37,2013-06-22 15:09:00,
2013-06-22 11:14:00,83.0,66.7,30.06,SE,127,4.0,13.8,58,0.00,BKN,,0.00,WeatherDisplay:10.37,2013-06-22 15:14:00,
2013-06-22 11:19:00,82.8,65.5,30.06,SSW,197,7.2,16.1,56,0.00,BKN,,0.00,WeatherDisplay:10.37,2013-06-22 15:19:00,
2013-06-22 11:24:00,82.6,66.3,30.06,SW,229,10.7,17.0,58,0.00,BKN,,0.00,WeatherDisplay:10.37,2013-06-22 15:24:00,
2013-06-22 11:30:00,82.4,66.6,30.06,SW,222,7.0,20.0,59,0.00,BKN,,0.00,WeatherDisplay:10.37,2013-06-22 15:30:00,
2013-06-22 11:35:00,82.7,66.4,30.05,NNE,29,7.2,10.0,58,0.00,BKN,,0.00,WeatherDisplay:10.37,2013-06-22 15:35:00,
2013-06-22 11:40:00,83.0,66.7,30.05,SSW,211,5.4,9.2,58,0.00,BKN,,0.00,WeatherDisplay:10.37,2013-06-22 15:40:00,
2013-06-22 11:45:00,83.2,66.9,30.05,SSW,208,6.4,10.4,58,0.00,BKN,,0.00,WeatherDisplay:10.37,2013-06-22 15:45:00,
2013-06-22 11:50:00,83.2,66.9,30.05,SW,217,5.8,11.0,58,0.00,BKN,,0.00,WeatherDisplay:10.37,2013-06-22 15:50:00,
2013-06-22 11:56:00,83.0,67.2,30.05,WSW,242,7.1,13.8,59,0.00,BKN,,0.00,WeatherDisplay:10.37,2013-06-22 15:56:00,
2013-06-22 12:01:00,82.8,67.0,30.05,SSW,201,5.9,11.5,59,0.00,BKN,,0.00,WeatherDisplay:10.37,2013-06-22 16:01:00,
2013-06-22 12:06:00,83.0,67.7,30.05,SSW,205,6.0,10.4,60,0.00,BKN,,0.00,WeatherDisplay:10.37,2013-06-22 16:06:00,
2013-06-22 12:11:00,82.7,66.9,30.06,WSW,238,9.4,15.0,59,0.00,BKN,,0.00,WeatherDisplay:10.37,2013-06-22 16:11:00,
2013-06-22 12:16:00,82.1,66.8,30.05,South,186,7.4,17.3,60,0.00,BKN,,0.00,WeatherDisplay:10.37,2013-06-22 16:16:00,
2013-06-22 12:21:00,82.0,67.7,30.06,SSW,211,5.1,6.9,62,0.00,BKN,,0.00,WeatherDisplay:10.37,2013-06-22 16:21:00,
2013-06-22 12:26:00,82.5,67.7,30.05,SW,215,4.6,6.0,61,0.00,BKN,,0.00,WeatherDisplay:10.37,2013-06-22 16:26:00,
2013-06-22 12:31:00,82.5,67.2,30.05,SW,232,7.7,12.7,60,0.00,BKN,,0.00,WeatherDisplay:10.37,2013-06-22 16:31:00,
2013-06-22 12:36:00,82.5,67.7,30.05,WSW,238,3.9,6.9,61,0.00,BKN,,0.00,WeatherDisplay:10.37,2013-06-22 16:36:00,
2013-06-22 12:41:00,82.6,67.8,30.05,ESE,120,3.8,4.6,61,0.00,BKN,,0.00,WeatherDisplay:10.37,2013-06-22 16:41:00,
2013-06-22 12:46:00,82.5,67.7,30.05,SSW,208,5.7,6.9,61,0.00,BKN,,0.00,WeatherDisplay:10.37,2013-06-22 16:46:00,
2013-06-22 12:51:00,82.5,66.7,30.05,SW,221,13.6,13.8,59,0.00,BKN,,0.00,WeatherDisplay:10.37,2013-06-22 16:51:00,
2013-06-22 12:56:00,82.1,67.8,30.05,SW,231,6.3,16.1,62,0.00,BKN,,0.00,WeatherDisplay:10.37,2013-06-22 16:56:00,
2013-06-22 13:01:00,81.9,67.6,30.04,WSW,243,5.5,10.4,62,0.00,BKN,,0.00,WeatherDisplay:10.37,2013-06-22 17:01:00,
2013-06-22 13:06:00,82.0,66.7,30.04,South,179,7.5,10.4,60,0.00,BKN,,0.00,WeatherDisplay:10.37,2013-06-22 17:06:00,
2013-06-22 13:11:00,81.7,67.4,30.04,SW,219,4.5,17.3,62,0.00,BKN,,0.00,WeatherDisplay:10.37,2013-06-22 17:11:00,
2013-06-22 13:16:00,81.8,67.5,30.04,SSW,203,5.5,11.5,62,0.00,BKN,,0.00,WeatherDisplay:10.37,2013-06-22 17:16:00,
2013-06-22 13:21:00,81.8,68.0,30.03,SSW,203,4.2,11.5,63,0.00,BKN,,0.00,WeatherDisplay:10.37,2013-06-22 17:21:00,
2013-06-22 13:26:00,82.0,68.2,30.03,SW,236,4.5,15.0,63,0.00,BKN,,0.00,WeatherDisplay:10.37,2013-06-22 17:26:00,
2013-06-22 13:31:00,82.3,68.0,30.03,South,172,6.4,12.7,62,0.00,BKN,,0.00,WeatherDisplay:10.37,2013-06-22 17:31:00,
2013-06-22 13:36:00,82.5,68.2,30.03,WSW,242,7.4,9.2,62,0.00,BKN,,0.00,WeatherDisplay:10.37,2013-06-22 17:36:00,
2013-06-22 13:41:00,82.3,68.0,30.03,SSW,194,6.7,13.8,62,0.00,BKN,,0.00,WeatherDisplay:10.37,2013-06-22 17:41:00,
2013-06-22 13:46:00,81.9,67.1,30.03,WSW,239,8.6,11.5,61,0.00,BKN,,0.00,WeatherDisplay:10.37,2013-06-22 17:46:00,
2013-06-22 13:51:00,81.7,68.8,30.03,South,187,3.6,3.6,65,0.00,BKN,,0.00,WeatherDisplay:10.37,2013-06-22 17:51:00,
2013-06-22 13:56:00,82.1,69.2,30.02,SW,214,4.2,5.0,65,0.00,BKN,,0.00,WeatherDisplay:10.37,2013-06-22 17:56:00,
2013-06-22 14:01:00,82.0,67.7,30.01,ESE,123,7.6,10.4,62,0.00,BKN,,0.00,WeatherDisplay:10.37,2013-06-22 18:01:00,
2013-06-22 14:06:00,81.8,68.0,30.01,SSW,205,5.0,8.1,63,0.00,BKN,,0.00,WeatherDisplay:10.37,2013-06-22 18:06:00,
2013-06-22 14:11:00,81.7,67.4,30.01,SW,236,8.9,12.7,62,0.00,BKN,,0.00,WeatherDisplay:10.37,2013-06-22 18:11:00,
2013-06-22 14:17:00,81.6,67.3,30.02,SW,225,6.9,11.5,62,0.00,BKN,,0.00,WeatherDisplay:10.37,2013-06-22 18:17:00,
2013-06-22 14:22:00,81.5,67.7,30.02,SW,231,4.0,9.2,63,0.00,BKN,,0.00,WeatherDisplay:10.37,2013-06-22 18:22:00,
2013-06-22 14:27:00,81.6,67.8,30.02,SW,226,4.9,10.4,63,0.00,BKN,,0.00,WeatherDisplay:10.37,2013-06-22 18:27:00,
2013-06-22 14:32:00,81.8,68.0,30.02,SSW,212,5.4,8.1,63,0.00,BKN,,0.00,WeatherDisplay:10.37,2013-06-22 18:32:00,
2013-06-22 14:37:00,82.1,67.3,30.02,SW,235,7.3,10.4,61,0.00,BKN,,0.00,WeatherDisplay:10.37,2013-06-22 18:37:00,
2013-06-22 14:42:00,82.2,68.3,30.02,SW,224,2.8,6.9,63,0.00,BKN,,0.00,WeatherDisplay:10.37,2013-06-22 18:42:00,
2013-06-22 14:47:00,82.3,67.5,30.02,SW,218,6.6,11.5,61,0.00,BKN,,0.00,WeatherDisplay:10.37,2013-06-22 18:47:00,
2013-06-22 14:52:00,82.3,67.5,30.02,SSW,204,7.5,12.7,61,0.00,BKN,,0.00,WeatherDisplay:10.37,2013-06-22 18:52:00,
2013-06-22 14:57:00,82.3,67.5,30.02,SW,221,4.5,5.8,61,0.00,BKN,,0.00,WeatherDisplay:10.37,2013-06-22 18:57:00,
2013-06-22 15:02:00,82.3,67.5,30.02,SW,224,6.4,11.5,61,0.00,BKN,,0.00,WeatherDisplay:10.37,2013-06-22 19:02:00,
2013-06-22 15:07:00,82.1,67.3,30.02,West,259,3.1,5.0,61,0.00,BKN,,0.00,WeatherDisplay:10.37,2013-06-22 19:07:00,
2013-06-22 15:12:00,82.0,67.7,30.02,SSW,211,5.6,9.2,62,0.00,BKN,,0.00,WeatherDisplay:10.37,2013-06-22 19:12:00,
2013-06-22 15:17:00,82.1,67.3,30.03,SSW,204,4.0,10.4,61,0.00,BKN,,0.00,WeatherDisplay:10.37,2013-06-22 19:17:00,
2013-06-22 15:22:00,82.1,67.3,30.02,ENE,63,4.7,9.2,61,0.00,BKN,,0.00,WeatherDisplay:10.37,2013-06-22 19:22:00,
2013-06-22 15:27:00,82.0,67.2,30.02,West,267,8.1,15.0,61,0.00,BKN,,0.00,WeatherDisplay:10.37,2013-06-22 19:27:00,
2013-06-22 15:32:00,81.9,67.1,30.02,SSW,196,5.8,11.5,61,0.00,BKN,,0.00,WeatherDisplay:10.37,2013-06-22 19:32:00,
2013-06-22 15:37:00,81.8,67.0,30.03,SW,221,7.1,11.5,61,0.00,BKN,,0.00,WeatherDisplay:10.37,2013-06-22 19:37:00,
2013-06-22 15:42:00,81.7,67.9,30.02,SSW,197,3.8,10.4,63,0.00,BKN,,0.00,WeatherDisplay:10.37,2013-06-22 19:42:00,
2013-06-22 15:47:00,81.7,67.4,30.02,SW,236,6.1,9.0,62,0.00,BKN,,0.00,WeatherDisplay:10.37,2013-06-22 19:47:00,
2013-06-22 15:52:00,82.0,68.6,30.01,SW,235,1.9,7.0,64,0.00,BKN,,0.00,WeatherDisplay:10.37,2013-06-22 19:52:00,
2013-06-22 15:57:00,82.4,68.5,30.01,SW,225,7.4,9.2,63,0.00,BKN,,0.00,WeatherDisplay:10.37,2013-06-22 19:57:00,
2013-06-22 16:02:00,82.9,69.5,30.01,SSW,207,2.9,4.6,64,0.00,BKN,,0.00,WeatherDisplay:10.37,2013-06-22 20:02:00,
2013-06-22 16:07:00,83.0,68.2,30.00,SSW,207,7.7,11.5,61,0.00,BKN,,0.00,WeatherDisplay:10.37,2013-06-22 20:07:00,
2013-06-22 16:12:00,83.1,69.2,30.00,SW,214,5.4,8.1,63,0.00,BKN,,0.00,WeatherDisplay:10.37,2013-06-22 20:12:00,
2013-06-22 16:17:00,83.3,68.9,30.00,SW,214,3.5,5.8,62,0.00,BKN,,0.00,WeatherDisplay:10.37,2013-06-22 20:17:00,
2013-06-22 16:22:00,83.6,69.2,30.00,SW,226,5.6,11.5,62,0.00,BKN,,0.00,WeatherDisplay:10.37,2013-06-22 20:22:00,
2013-06-22 16:27:00,84.0,68.6,29.99,SW,236,6.9,12.7,60,0.00,BKN,,0.00,WeatherDisplay:10.37,2013-06-22 20:27:00,
2013-06-22 16:32:00,84.2,68.8,29.99,SW,233,6.3,10.4,60,0.00,BKN,,0.00,WeatherDisplay:10.37,2013-06-22 20:32:00,
2013-06-22 16:37:00,84.5,69.6,29.99,SW,215,6.1,10.4,61,0.00,BKN,,0.00,WeatherDisplay:10.37,2013-06-22 20:37:00,
2013-06-22 16:42:00,84.8,69.4,29.98,South,187,5.0,10.4,60,0.00,BKN,,0.00,WeatherDisplay:10.37,2013-06-22 20:42:00,
2013-06-22 16:47:00,85.0,69.6,29.98,SW,233,9.5,16.1,60,0.00,BKN,,0.00,WeatherDisplay:10.37,2013-06-22 20:47:00,
2013-06-22 16:52:00,85.0,69.6,29.98,SW,216,5.7,9.0,60,0.00,BKN,,0.00,WeatherDisplay:10.37,2013-06-22 20:52:00,
2013-06-22 16:57:00,85.2,69.3,29.98,SSW,197,5.0,9.0,59,0.00,BKN,,0.00,WeatherDisplay:10.37,2013-06-22 20:57:00,
2013-06-22 17:02:00,85.2,69.3,29.97,SW,236,7.1,10.4,59,0.00,BKN,,0.00,WeatherDisplay:10.37,2013-06-22 21:02:00,
2013-06-22 17:07:00,85.4,69.9,29.97,South,176,3.4,5.8,60,0.00,BKN,,0.00,WeatherDisplay:10.37,2013-06-22 21:07:00,
2013-06-22 17:12:00,85.6,69.1,29.97,SSW,198,7.4,11.5,58,0.00,BKN,,0.00,WeatherDisplay:10.37,2013-06-22 21:12:00,
2013-06-22 17:17:00,85.7,69.7,29.97,South,188,4.3,5.8,59,0.00,BKN,,0.00,WeatherDisplay:10.37,2013-06-22 21:17:00,
2013-06-22 17:22:00,85.9,69.9,29.97,SW,214,5.1,7.0,59,0.00,BKN,,0.00,WeatherDisplay:10.37,2013-06-22 21:22:00,
2013-06-22 17:27:00,85.7,69.2,29.97,SW,231,6.3,11.5,58,0.00,BKN,,0.00,WeatherDisplay:10.37,2013-06-22 21:27:00,
2013-06-22 17:32:00,85.6,69.1,29.96,SW,225,5.2,12.7,58,0.00,BKN,,0.00,WeatherDisplay:10.37,2013-06-22 21:32:00,
2013-06-22 17:37:00,85.5,69.0,29.97,South,184,8.6,11.5,58,0.00,BKN,,0.00,WeatherDisplay:10.37,2013-06-22 21:37:00,
2013-06-22 17:42:00,85.5,70.0,29.97,SW,217,4.7,10.4,60,0.00,BKN,,0.00,WeatherDisplay:10.37,2013-06-22 21:42:00,
2013-06-22 17:47:00,85.6,68.6,29.97,WSW,252,5.6,11.5,57,0.00,BKN,,0.00,WeatherDisplay:10.37,2013-06-22 21:47:00,
2013-06-22 17:52:00,85.6,68.6,29.96,SW,217,6.6,9.2,57,0.00,BKN,,0.00,WeatherDisplay:10.37,2013-06-22 21:52:00,
2013-06-22 17:57:00,85.8,69.3,29.96,SW,224,3.4,4.6,58,0.00,BKN,,0.00,WeatherDisplay:10.37,2013-06-22 21:57:00,
2013-06-22 18:02:00,85.6,69.1,29.96,SW,228,2.9,8.1,58,0.00,BKN,,0.00,WeatherDisplay:10.37,2013-06-22 22:02:00,
2013-06-22 18:07:00,85.4,69.4,29.96,WSW,256,6.3,9.2,59,0.00,BKN,,0.00,WeatherDisplay:10.37,2013-06-22 22:07:00,
2013-06-22 18:12:00,85.7,69.7,29.96,SW,225,3.5,6.9,59,0.00,BKN,,0.00,WeatherDisplay:10.37,2013-06-22 22:12:00,
2013-06-22 18:17:00,85.7,69.7,29.96,ESE,120,2.5,3.5,59,0.00,BKN,,0.00,WeatherDisplay:10.37,2013-06-22 22:17:00,
2013-06-22 18:22:00,85.6,69.1,29.96,SSW,193,5.2,12.7,58,0.00,BKN,,0.00,WeatherDisplay:10.37,2013-06-22 22:22:00,
2013-06-22 18:27:00,85.7,69.2,29.96,SW,221,4.8,6.9,58,0.00,BKN,,0.00,WeatherDisplay:10.37,2013-06-22 22:27:00,
2013-06-22 18:32:00,85.7,69.2,29.95,SSE,159,4.1,8.1,58,0.00,BKN,,0.00,WeatherDisplay:10.37,2013-06-22 22:32:00,
2013-06-22 18:37:00,85.9,69.4,29.95,SSW,201,2.7,5.8,58,0.00,BKN,,0.00,WeatherDisplay:10.37,2013-06-22 22:37:00,
2013-06-22 18:42:00,85.8,69.8,29.95,SW,226,7.8,9.2,59,0.00,BKN,,0.00,WeatherDisplay:10.37,2013-06-22 22:42:00,
2013-06-22 18:47:00,84.9,69.5,29.96,SW,229,2.8,8.1,60,0.00,BKN,,0.00,WeatherDisplay:10.37,2013-06-22 22:47:00,
2013-06-22 18:52:00,84.3,69.4,29.96,SSW,210,3.6,9.2,61,0.00,BKN,,0.00,WeatherDisplay:10.37,2013-06-22 22:52:00,
2013-06-22 18:57:00,83.8,68.9,29.96,SW,231,6.3,10.4,61,0.00,BKN,,0.00,WeatherDisplay:10.37,2013-06-22 22:57:00,
2013-06-22 19:02:00,83.2,69.3,29.96,SW,228,4.0,6.9,63,0.00,BKN,,0.00,WeatherDisplay:10.37,2013-06-22 23:02:00,
2013-06-22 19:07:00,82.8,69.4,29.96,SSW,210,3.4,5.8,64,0.00,BKN,,0.00,WeatherDisplay:10.37,2013-06-22 23:07:00,
2013-06-22 19:12:00,82.5,69.1,29.96,SSW,207,2.3,3.5,64,0.00,BKN,,0.00,WeatherDisplay:10.37,2013-06-22 23:12:00,
2013-06-22 19:17:00,82.5,69.5,29.96,SSW,204,2.7,6.0,65,0.00,BKN,,0.00,WeatherDisplay:10.37,2013-06-22 23:17:00,
2013-06-22 19:22:00,82.2,69.7,29.96,SW,215,1.8,3.0,66,0.00,BKN,,0.00,WeatherDisplay:10.37,2013-06-22 23:22:00,
2013-06-22 19:27:00,82.0,69.5,29.96,SSW,203,1.2,2.3,66,0.00,BKN,,0.00,WeatherDisplay:10.37,2013-06-22 23:27:00,
2013-06-22 19:32:00,81.9,69.4,29.96,SSE,156,2.2,2.3,66,0.00,BKN,,0.00,WeatherDisplay:10.37,2013-06-22 23:32:00,
2013-06-22 19:37:00,81.7,69.7,29.96,SW,218,1.1,2.3,67,0.00,BKN,,0.00,WeatherDisplay:10.37,2013-06-22 23:37:00,
2013-06-22 19:42:00,81.4,69.4,29.96,South,186,2.1,3.5,67,0.00,BKN,,0.00,WeatherDisplay:10.37,2013-06-22 23:42:00,
2013-06-22 19:47:00,81.2,69.6,29.97,SSW,201,0.4,2.3,68,0.00,BKN,,0.00,WeatherDisplay:10.37,2013-06-22 23:47:00,
2013-06-22 19:52:00,81.0,69.4,29.96,South,185,1.4,2.3,68,0.00,BKN,,0.00,WeatherDisplay:10.37,2013-06-22 23:52:00,
2013-06-22 19:57:00,80.8,69.7,29.97,SSW,204,0.6,1.2,69,0.00,BKN,,0.00,WeatherDisplay:10.37,2013-06-22 23:57:00,
2013-06-22 20:02:00,80.5,69.8,29.97,SSW,205,0.5,1.2,70,0.00,BKN,,0.00,WeatherDisplay:10.37,2013-06-23 00:02:00,
2013-06-22 20:07:00,80.2,69.5,29.97,South,173,1.2,2.3,70,0.00,BKN,,0.00,WeatherDisplay:10.37,2013-06-23 00:07:00,
2013-06-22 20:12:00,79.9,69.7,29.96,South,190,1.2,2.3,71,0.00,BKN,,0.00,WeatherDisplay:10.37,2013-06-23 00:12:00,
2013-06-22 20:17:00,79.7,69.5,29.96,SSE,165,1.1,1.2,71,0.00,BKN,,0.00,WeatherDisplay:10.37,2013-06-23 00:17:00,
2013-06-22 20:22:00,79.6,69.8,29.97,SSE,161,0.8,1.2,72,0.00,BKN,,0.00,WeatherDisplay:10.37,2013-06-23 00:22:00,
2013-06-22 20:27:00,79.4,69.6,29.96,SSE,162,2.1,3.5,72,0.00,BKN,,0.00,WeatherDisplay:10.37,2013-06-23 00:27:00,
2013-06-22 20:32:00,79.3,69.5,29.97,SSW,193,1.4,3.5,72,0.00,BKN,,0.00,WeatherDisplay:10.37,2013-06-23 00:32:00,
2013-06-22 20:37:00,79.1,69.3,29.97,SSE,165,0.8,2.3,72,0.00,BKN,,0.00,WeatherDisplay:10.37,2013-06-23 00:37:00,
2013-06-22 20:42:00,79.0,69.6,29.97,SSW,210,2.0,3.0,73,0.00,BKN,,0.00,WeatherDisplay:10.37,2013-06-23 00:42:00,
2013-06-22 20:47:00,78.8,69.4,29.97,South,176,2.1,2.1,73,0.00,BKN,,0.00,WeatherDisplay:10.37,2013-06-23 00:47:00,
2013-06-22 20:52:00,78.7,69.3,29.97,SSW,195,1.3,3.5,73,0.00,BKN,,0.00,WeatherDisplay:10.37,2013-06-23 00:52:00,
2013-06-22 20:57:00,78.6,69.2,29.97,SSW,205,1.7,3.0,73,0.00,BKN,,0.00,WeatherDisplay:10.37,2013-06-23 00:57:00,
2013-06-22 21:02:00,78.5,69.1,29.97,South,186,1.3,2.0,73,0.00,BKN,,0.00,WeatherDisplay:10.37,2013-06-23 01:02:00,
2013-06-22 21:07:00,78.4,69.0,29.97,SSW,198,1.8,3.5,73,0.00,BKN,,0.00,WeatherDisplay:10.37,2013-06-23 01:07:00,
2013-06-22 21:12:00,78.4,69.4,29.97,SSW,197,1.8,3.5,74,0.00,BKN,,0.00,WeatherDisplay:10.37,2013-06-23 01:12:00,
2013-06-22 21:17:00,78.4,69.4,29.98,SSW,203,1.2,2.3,74,0.00,BKN,,0.00,WeatherDisplay:10.37,2013-06-23 01:17:00,
2013-06-22 21:22:00,78.3,69.3,29.98,South,170,1.3,2.3,74,0.00,BKN,,0.00,WeatherDisplay:10.37,2013-06-23 01:22:00,
2013-06-22 21:27:00,78.3,69.3,29.98,SSW,205,1.9,3.5,74,0.00,BKN,,0.00,WeatherDisplay:10.37,2013-06-23 01:27:00,
2013-06-22 21:32:00,78.2,69.2,29.98,SSE,164,2.0,3.5,74,0.00,BKN,,0.00,WeatherDisplay:10.37,2013-06-23 01:32:00,
2013-06-22 21:37:00,78.1,69.1,29.98,SE,143,1.4,4.6,74,0.00,BKN,,0.00,WeatherDisplay:10.37,2013-06-23 01:37:00,
2013-06-22 21:42:00,78.0,69.4,29.98,SSE,155,1.4,3.5,75,0.00,BKN,,0.00,WeatherDisplay:10.37,2013-06-23 01:42:00,
2013-06-22 21:47:00,77.7,69.1,29.98,SSW,207,0.5,2.3,75,0.00,BKN,,0.00,WeatherDisplay:10.37,2013-06-23 01:47:00,
2013-06-22 21:52:00,77.5,68.9,29.99,SSE,156,1.6,1.6,75,0.00,BKN,,0.00,WeatherDisplay:10.37,2013-06-23 01:52:00,
2013-06-22 21:57:00,77.3,69.1,29.99,South,177,0.8,1.2,76,0.00,BKN,,0.00,WeatherDisplay:10.37,2013-06-23 01:57:00,
2013-06-22 22:02:00,77.1,68.9,29.99,SSE,162,1.1,2.3,76,0.00,SCT,,0.00,WeatherDisplay:10.37,2013-06-23 02:02:00,
2013-06-22 22:07:00,77.0,68.9,29.99,SSE,152,1.5,3.5,76,0.00,SCT,,0.00,WeatherDisplay:10.37,2013-06-23 02:07:00,
2013-06-22 22:12:00,76.7,68.9,29.99,SSW,195,0.9,2.3,77,0.00,SCT,,0.00,WeatherDisplay:10.37,2013-06-23 02:12:00,
2013-06-22 22:18:00,76.5,68.7,29.99,South,174,0.0,0.0,77,0.00,SCT,,0.00,WeatherDisplay:10.37,2013-06-23 02:18:00,
2013-06-22 22:23:00,76.2,68.8,29.99,SE,131,0.0,1.0,78,0.00,SCT,,0.00,WeatherDisplay:10.37,2013-06-23 02:23:00,
2013-06-22 22:28:00,75.9,68.5,29.99,SSE,159,0.0,0.0,78,0.00,SCT,,0.00,WeatherDisplay:10.37,2013-06-23 02:28:00,
2013-06-22 22:33:00,75.8,68.4,30.00,SSE,160,0.0,0.0,78,0.00,SCT,,0.00,WeatherDisplay:10.37,2013-06-23 02:33:00,
2013-06-22 22:38:00,75.6,68.6,30.00,WSW,243,0.0,0.0,79,0.00,SCT,,0.00,WeatherDisplay:10.37,2013-06-23 02:38:00,
2013-06-22 22:43:00,75.4,68.4,30.00,WSW,243,0.0,0.0,79,0.00,SCT,,0.00,WeatherDisplay:10.37,2013-06-23 02:43:00,
2013-06-22 22:48:00,75.2,68.6,30.00,WSW,243,0.0,0.0,80,0.00,SCT,,0.00,WeatherDisplay:10.37,2013-06-23 02:48:00,
2013-06-22 22:53:00,75.0,68.4,30.00,WSW,255,0.9,1.2,80,0.00,SCT,,0.00,WeatherDisplay:10.37,2013-06-23 02:53:00,
2013-06-22 22:58:00,74.9,68.3,30.00,SW,232,1.1,2.3,80,0.00,SCT,,0.00,WeatherDisplay:10.37,2013-06-23 02:58:00,
2013-06-22 23:03:00,74.8,68.6,30.00,South,188,1.0,1.2,81,0.00,BKN,,0.00,WeatherDisplay:10.37,2013-06-23 03:03:00,
2013-06-22 23:08:00,74.6,68.4,29.99,SSW,193,0.3,1.2,81,0.00,BKN,,0.00,WeatherDisplay:10.37,2013-06-23 03:08:00,
2013-06-22 23:13:00,74.6,68.4,29.99,SW,227,0.6,1.2,81,0.00,BKN,,0.00,WeatherDisplay:10.37,2013-06-23 03:13:00,
2013-06-22 23:18:00,74.5,68.3,29.99,South,169,1.3,2.3,81,0.00,BKN,,0.00,WeatherDisplay:10.37,2013-06-23 03:18:00,
2013-06-22 23:23:00,74.5,68.3,29.99,SSW,193,1.1,2.3,81,0.00,BKN,,0.00,WeatherDisplay:10.37,2013-06-23 03:23:00,
2013-06-22 23:28:00,74.5,68.3,29.99,South,190,0.5,1.2,81,0.00,BKN,,0.00,WeatherDisplay:10.37,2013-06-23 03:28:00,
2013-06-22 23:33:00,74.5,68.3,29.99,SSW,198,0.0,0.0,81,0.00,BKN,,0.00,WeatherDisplay:10.37,2013-06-23 03:33:00,
2013-06-22 23:38:00,74.4,68.2,29.99,WNW,284,1.0,1.2,81,0.00,BKN,,0.00,WeatherDisplay:10.37,2013-06-23 03:38:00,
2013-06-22 23:43:00,74.1,68.3,30.00,NW,318,0.0,1.2,82,0.00,BKN,,0.00,WeatherDisplay:10.37,2013-06-23 03:43:00,
2013-06-22 23:48:00,73.9,68.1,30.00,NW,316,0.0,1.2,82,0.00,BKN,,0.00,WeatherDisplay:10.37,2013-06-23 03:48:00,
2013-06-22 23:53:00,73.9,68.1,30.00,NW,316,0.0,0.0,82,0.00,BKN,,0.00,WeatherDisplay:10.37,2013-06-23 03:53:00,
2013-06-22 23:58:00,73.9,68.1,30.01,NW,316,0.0,0.0,82,0.00,BKN,,0.00,WeatherDisplay:10.37,2013-06-23 03:58:00,